Shepherd Bay, Nunavut

2:56 AM CDT on April 22, 2018 (GMT -0500)
Shepherd Bay

Weather History for CYUS - March, 2013

Change the Weather History Date:

Wednesday, March 13, 2013

  Actual Average Record
Temperature  
Mean Temperature -38 °F -  
Max Temperature -31 °F - - ()
Min Temperature -45 °F -28 °F - ()
Degree Days  
Heating Degree Days 103    
Moisture  
Dew Point -    
Average Humidity    
Maximum Humidity    
Minimum Humidity    
Precipitation  
Precipitation 0.00 in 0.01 in - ()
Sea Level Pressure  
Sea Level Pressure 30.12 in    
Wind  
Wind Speed 9 mph ()    
Max Wind Speed 14 mph    
Max Gust Speed -    
Visibility 2.8 miles    
Events      
T = Trace of Precipitation, MM = Missing Value Source: Averaged Metar Reports

Daily Weather History Graph

Daily Weather History Graph

Search for Another Location

Airport or City:

Astronomy

Mar. 13, 2013 Rise Set
Actual Time 7:42 AM CDT 7:05 PM CDT
Civil Twilight 6:45 AM CDT 8:03 PM CDT
Nautical Twilight 5:35 AM CDT 9:13 PM CDT
Astronomical Twilight 4:15 AM CDT 10:35 PM CDT
Moon 7:08 AM CDT (3/13) 10:58 PM CDT (3/13)
Length of Visible Light 13h 18m
Length of Day
11h 23m
Waxing Crescent, 4% of the Moon is Illuminated
Mar 13
Waxing Crescent
Mar 19
First Quarter
Mar 27
Full
Apr 2
Last Quarter
Apr 10
New

Hourly Weather History & Observations

Time (CDT) Temp. Windchill Dew Point Humidity Pressure Visibility Wind Dir Wind Speed Gust Speed Precip Events Conditions
12:00 AM -40.0 °F -62.9 °F - N/A% 30.00 in 9.0 mi ESE 8.1 mph - N/A   Unknown
1:00 AM -41.8 °F -68.2 °F - N/A% 30.01 in 9.0 mi SE 10.4 mph - N/A   Unknown
2:00 AM -40.0 °F -67.2 °F - N/A% 30.02 in 9.0 mi ESE 11.5 mph - N/A   Unknown
3:00 AM -41.8 °F -70.7 °F - N/A% 30.03 in 5.0 mi ESE 12.7 mph - N/A   Unknown
4:00 AM -41 °F - - % 30.03 in 5 mi SE 11.5 mph - -  
4:00 AM -41.8 °F -69.5 °F - N/A% 30.03 in 5.0 mi ESE 11.5 mph - N/A   Unknown
4:25 AM -41.8 °F -69.5 °F - N/A% 30.00 in 3.0 mi SE 11.5 mph - N/A   Unknown
4:59 AM -43.6 °F -71.7 °F - N/A% 30.01 in 3.0 mi ESE 11.5 mph - N/A   Unknown
5:00 AM -43.6 °F -71.7 °F - N/A% 30.04 in 3.0 mi ESE 11.5 mph - N/A   Unknown
5:36 AM -43.6 °F -71.7 °F - N/A% 30.02 in 3.0 mi SE 11.5 mph - N/A   Unknown
6:00 AM -43.6 °F -68.9 °F - N/A% 30.05 in 2.5 mi SE 9.2 mph - N/A   Unknown
7:00 AM -45 °F - - % 30.06 in 2 mi SE 9.2 mph - -  
7:00 AM -45.4 °F -71.1 °F - N/A% 30.06 in 1.5 mi SE 9.2 mph - N/A   Unknown
7:24 AM -45.4 °F -69.5 °F - N/A% 30.03 in 1.4 mi SSE 8.1 mph - N/A   Unknown
7:30 AM -45.4 °F -69.5 °F - N/A% 30.03 in 1.2 mi SSE 8.1 mph - N/A   Unknown
7:51 AM -41.8 °F -63.3 °F - N/A% 30.04 in 1.0 mi South 6.9 mph - N/A   Unknown
8:00 AM -38.2 °F -58.9 °F - N/A% 30.07 in 1.0 mi South 6.9 mph - N/A   Unknown
8:14 AM -38.2 °F -60.7 °F - N/A% 30.04 in 1.1 mi South 8.1 mph - N/A   Unknown
8:43 AM -34.6 °F -59.2 °F - N/A% 30.05 in 1.1 mi SSW 10.4 mph - N/A   Unknown
9:00 AM -34.6 °F -56.3 °F - N/A% 30.09 in 1.1 mi SSW 8.1 mph - N/A   Unknown
9:17 AM -34.6 °F -57.8 °F - N/A% 30.06 in 1.1 mi SSW 9.2 mph - N/A   Unknown
10:00 AM -35 °F - - % 30.10 in 1 mi South 5.8 mph - -  
10:00 AM -34.6 °F -52.6 °F - N/A% 30.10 in 1.2 mi South 5.8 mph - N/A   Unknown
11:00 AM -32.8 °F -50.5 °F - N/A% 30.12 in 1.1 mi South 5.8 mph - N/A   Unknown
11:48 AM -32.8 °F -59.3 °F - N/A% 30.09 in 1.0 mi South 12.7 mph - N/A   Unknown
12:00 PM -32.8 °F -60.4 °F - N/A% 30.13 in 1.0 mi South 13.8 mph - N/A   Unknown
1:00 PM -32 °F - - % 30.15 in 1 mi South 10.4 mph - -  
1:00 PM -31.0 °F -56.0 °F - N/A% 30.15 in 1.0 mi SSW 11.5 mph - N/A   Unknown
1:23 PM -31.0 °F -53.4 °F - N/A% 30.12 in 1.1 mi SSW 9.2 mph - N/A   Unknown
2:00 PM -31.0 °F -56.0 °F - N/A% 30.17 in 1.0 mi South 11.5 mph - N/A   Unknown
2:27 PM -31.0 °F -57.1 °F - N/A% 30.14 in 1.0 mi South 12.7 mph - N/A   Unknown
3:00 PM -31.0 °F -57.1 °F - N/A% 30.18 in 1.0 mi South 12.7 mph - N/A   Unknown
4:00 PM -31 °F - - % 30.18 in 1 mi South 11.5 mph - -  
4:00 PM -31.0 °F -57.1 °F - N/A% 30.18 in 1.0 mi South 12.7 mph - N/A   Unknown
4:10 PM -31.0 °F -56.0 °F - N/A% 30.15 in 1.1 mi South 11.5 mph - N/A   Unknown
4:56 PM -32.8 °F -55.6 °F - N/A% 30.17 in 1.5 mi South 9.2 mph - N/A   Unknown
5:00 PM -32.8 °F -57.0 °F - N/A% 30.20 in 1.6 mi South 10.4 mph - N/A   Unknown
5:35 PM -34.6 °F -59.2 °F - N/A% 30.17 in 1.4 mi South 10.4 mph - N/A   Unknown
6:00 PM -34.6 °F -60.5 °F - N/A% 30.21 in 1.2 mi South 11.5 mph - N/A   Unknown
6:49 PM -36.4 °F -60.1 °F - N/A% 30.18 in 2.0 mi SSE 9.2 mph - N/A   Unknown
6:52 PM -36.4 °F -61.5 °F - N/A% 30.18 in 2.1 mi SSE 10.4 mph - N/A   Unknown
6:54 PM -36.4 °F -60.1 °F - N/A% 30.19 in 2.2 mi SSE 9.2 mph - N/A   Unknown
6:55 PM -36.4 °F -60.1 °F - N/A% 30.19 in 2.2 mi SSE 9.2 mph - N/A   Unknown
7:00 PM -37 °F - - % 30.22 in 2 mi SSE 10.4 mph - -  
7:00 PM -36.4 °F -61.5 °F - N/A% 30.22 in 2.5 mi South 10.4 mph - N/A   Unknown
7:18 PM -38.2 °F -63.7 °F - N/A% 30.19 in 2.0 mi SSE 10.4 mph - N/A   Unknown
7:25 PM -38.2 °F -63.7 °F - N/A% 30.19 in 3.0 mi SSE 10.4 mph - N/A   Unknown
7:31 PM -38.2 °F -63.7 °F - N/A% 30.19 in 3.5 mi SSE 10.4 mph - N/A   Unknown
7:38 PM -38.2 °F -65.0 °F - N/A% 30.19 in 3.5 mi SSE 11.5 mph - N/A   Unknown
8:00 PM -40.0 °F -67.2 °F - N/A% 30.23 in 5.0 mi SSE 11.5 mph - N/A   Unknown
9:00 PM -41.8 °F -69.5 °F - N/A% 30.24 in 6.0 mi SSE 11.5 mph - N/A   Unknown
10:00 PM -43 °F - - % 30.25 in 9 mi SE 11.5 mph - -  
10:00 PM -41.8 °F -69.5 °F - N/A% 30.25 in 9.0 mi SE 11.5 mph - N/A   Unknown
11:00 PM -43.6 °F -68.9 °F - N/A% 30.25 in 9.0 mi SE 9.2 mph - N/A   Unknown